Content
SEND FEEDBACK

Daily
Averages
Monthly
Summary
United States of America

CHESTERFIELD, MISSOURI


Home > North America > United States > Missouri
Elevation: 559 feet     Latitude: 38 41N     Longitude: 090 31W

WEATHER
 
SELECT A DAY
Number of Records: 206,484;   Date Range: 1/1/95 - 10/19/14
 
SHARE

PRINT THIS DATA

[ ← Previous Day ]
WEATHER ALMANAC - APRIL 18, 2013
[ Next Day → ]
[ °C ]   °F
Weather ElementAverageHighLow
Temperature61.6 °F77 °F (4:51 am)42.1 °F (11:51 pm)
Dewpoint56.1 °F66.2 °F (6:24 am)30.9 °F (11:51 pm)
Humidity82.8 %94 % (6:39 am)61 % (5:43 am)
Barometer29.65 in29.78 in (9:38 pm)29.54 in (4:51 am)
Wind Speed16 mph28.8 mph (3:00 pm)
Wind Gust39.1 mph (6:33 am)
Weather ElementAverage
Visibility5.8 mi
Wind DirectionSSW (212.3 °)

Weather ElementTotal
Precipitation5.48 in
Heating Degree Days5.5 (Base 65)
Growing Degree Days9.6 (Base 50)
Averaged from 53 records on April 18, 2013
WEATHER CONDITIONS BREAKOUT
WIND DIRECTION BREAKOUT
WEATHER BY HOUR - APRIL 18, 2013
[ °C ]   °F
Local TimeTemperatureDewpointHumidityBarometerVisibilityWind DirectionWind SpeedGust SpeedPrecipitationEventsConditions
1:51 AM75.9 °F64.0 °F67 %29.62 in10.0 miSouth (180°)18.4 mph28.8 mphMostly Cloudy
2:51 AM75.9 °F64.0 °F67 %29.59 in10.0 miSouth (180°)16.1 mph21.9 mphOvercast
3:51 AM75.9 °F64.0 °F67 %29.56 in10.0 miSouth (170°)12.7 mph21.9 mphMostly Cloudy
4:51 AM77.0 °F63.0 °F62 %29.54 in10.0 miSSW (200°)23.0 mph31.1 mphOvercast
5:43 AM77.0 °F62.6 °F61 %29.57 in9.0 miSouth (190°)23.0 mph31.1 mphThunderstormThunderstorm
5:51 AM75.0 °F64.0 °F69 %29.54 in7.0 miSouth (190°)23.0 mph32.2 mph0.01 inRain-ThunderstormLight Thunderstorms and Rain
6:24 AM71.6 °F66.2 °F83 %29.60 in3.0 miSouth (190°)17.3 mph31.1 mph0.10 inRain-ThunderstormThunderstorms and Rain
6:30 AM71.6 °F66.2 °F83 %29.65 in5.0 miWest (280°)18.4 mph29.9 mph0.18 inRain-ThunderstormLight Thunderstorms and Rain
6:33 AM69.8 °F64.4 °F83 %29.65 in5.0 miWNW (290°)26.5 mph39.1 mph0.18 inRain-ThunderstormLight Thunderstorms and Rain
6:35 AM66.2 °F62.6 °F88 %29.66 in2.0 miWest (270°)25.3 mph39.1 mph0.19 inRain-ThunderstormHeavy Thunderstorms and Rain
6:39 AM64.4 °F62.6 °F94 %29.67 in1.0 miWSW (250°)24.2 mph39.1 mph0.25 inRain-ThunderstormHeavy Thunderstorms and Rain
6:51 AM64.9 °F61.0 °F87 %29.62 in1.8 miWest (260°)11.5 mph25.3 mph0.50 inRain-ThunderstormHeavy Thunderstorms and Rain
7:14 AM64.4 °F60.8 °F88 %29.67 in4.0 miWest (260°)8.1 mph0.37 inRain-ThunderstormHeavy Thunderstorms and Rain
7:34 AM64.4 °F60.8 °F88 %29.68 in4.0 miWSW (240°)8.1 mph0.40 inRain-ThunderstormLight Thunderstorms and Rain
7:51 AM64.0 °F61.0 °F90 %29.62 in5.0 miWSW (240°)5.8 mph0.41 inRain-ThunderstormLight Thunderstorms and Rain
7:57 AM64.4 °F60.8 °F88 %29.65 in7.0 miWSW (240°)5.8 mph0.01 inRainLight Rain
8:51 AM64.0 °F61.0 °F90 %29.62 in7.0 miSE (130°)6.9 mph0.08 inRainLight Rain
9:04 AM64.4 °F60.8 °F88 %29.67 in3.0 miSSE (160°)9.2 mph0.03 inRainRain
9:28 AM64.4 °F60.8 °F88 %29.66 in2.5 miSE (140°)5.8 mph0.12 inRainRain
9:51 AM64.0 °F62.1 °F93 %29.63 in3.0 miSE (130°)5.8 mph0.24 inRainLight Rain
10:22 AM64.4 °F62.6 °F94 %29.66 in2.5 miSE (140°)12.7 mph0.10 inRainRain
10:32 AM64.4 °F60.8 °F88 %29.65 in1.5 miSSE (160°)9.2 mph0.16 inRainRain
10:39 AM64.4 °F62.6 °F94 %29.65 in2.5 miSE (140°)8.1 mph0.22 inRainRain
10:51 AM64.4 °F60.8 °F88 %29.65 in2.5 miSE (140°)11.5 mphRainRain
11:04 AM64.4 °F60.8 °F88 %29.65 in3.0 miSE (140°)13.8 mphRain-ThunderstormThunderstorms and Rain
11:25 AM64.4 °F60.8 °F88 %29.67 in1.0 miSSE (160°)15.0 mph0.14 inRain-ThunderstormThunderstorms and Rain
11:51 AM63.0 °F61.0 °F93 %29.62 in3.0 miSE (140°)10.4 mph0.36 inRainLight Rain
11:57 AM62.6 °F60.8 °F94 %29.64 in3.0 miSE (130°)11.5 mph0.03 inRainRain
12:05 PM62.6 °F60.8 °F94 %29.64 in3.0 miSE (140°)11.5 mph0.07 inRain-ThunderstormThunderstorms and Rain
12:23 PM62.6 °F60.8 °F94 %29.63 in4.0 miSE (140°)11.5 mph0.15 inRainLight Rain
12:41 PM64.4 °F60.8 °F88 %29.61 in4.0 miSE (130°)13.8 mph0.21 inRain-ThunderstormThunderstorms and Rain
12:51 PM64.0 °F61.0 °F90 %29.58 in5.0 miSE (140°)15.0 mph0.24 inRain-ThunderstormLight Thunderstorms and Rain
1:09 PM64.4 °F60.8 °F88 %29.61 in7.0 miSSE (150°)16.1 mph0.04 inRainLight Rain
1:51 PM64.9 °F62.1 °F90 %29.56 in7.0 miSouth (170°)11.5 mph0.07 inRainLight Rain
2:22 PM64.4 °F62.6 °F94 %29.60 in4.0 miSouth (190°)10.4 mph17.3 mph0.05 inRainLight Rain
2:46 PM66.2 °F62.6 °F88 %29.58 in6.0 miSSW (200°)17.3 mph23.0 mph0.08 inRainLight Rain
2:51 PM66.0 °F61.0 °F84 %29.58 in6.0 miWSW (240°)20.7 mph26.5 mph0.08 inRainLight Rain
3:00 PM60.8 °F57.2 °F88 %29.63 in5.0 miWSW (250°)28.8 mph38.0 mph0.01 inRainLight Rain
3:04 PM60.8 °F55.4 °F82 %29.64 in4.0 miWSW (250°)25.3 mph38.0 mph0.02 inRainLight Rain
3:47 PM53.6 °F50.0 °F88 %29.63 in6.0 miWest (280°)13.8 mph25.3 mph0.14 inRainLight Rain
3:51 PM53.1 °F50.0 °F89 %29.61 in8.0 miWest (280°)16.1 mph25.3 mph0.14 inRainLight Rain
4:02 PM53.6 °F48.2 °F82 %29.65 in8.0 miWest (270°)21.9 mph27.6 mph0.01 inRainLight Rain
4:51 PM51.1 °F46.0 °F83 %29.66 in6.0 miWest (270°)24.2 mph29.9 mph0.06 inRainLight Rain
5:21 PM50.0 °F44.6 °F82 %29.70 in7.0 miWest (270°)21.9 mph28.8 mph0.01 inOvercast
5:48 PM48.2 °F42.8 °F82 %29.72 in10.0 miWest (270°)21.9 mph26.5 mph0.01 inOvercast
5:51 PM48.9 °F42.1 °F77 %29.70 in10.0 miWest (260°)23.0 mph28.8 mph0.01 inOvercast
6:51 PM48.0 °F39.9 °F74 %29.75 in10.0 miWest (270°)20.7 mph27.6 mph0.00 inOvercast
7:51 PM46.9 °F37.0 °F68 %29.73 in10.0 miWest (280°)24.2 mph28.8 mphOvercast
8:51 PM46.0 °F35.1 °F66 %29.75 in10.0 miWNW (290°)19.6 mph27.6 mphOvercast
9:38 PM44.6 °F33.8 °F66 %29.78 in10.0 miWNW (300°)16.1 mph27.6 mphMostly Cloudy
9:51 PM44.1 °F33.1 °F65 %29.78 in10.0 miWNW (300°)16.1 mph25.3 mphMostly Cloudy
10:51 PM43.0 °F33.1 °F68 %29.76 in10.0 miWNW (290°)18.4 mph32.2 mphMostly Cloudy
11:51 PM42.1 °F30.9 °F65 %29.77 in10.0 miWest (280°)19.6 mph29.9 mphOvercast
Hourly data recorded from KSTL, located miles away from Chesterfield, Missouri







STORIES FROM OUR PARTNERS